Regional Weather Roundup
Issued by NWS

Home | Current Version | Previous Version | Text Only | Print | Product List | Glossary Off
Versions: 1 2 3 4 5 6 7 8 9 10 11 12 13 14 15 16 17 18 19 20 21 22 23 24 25 26 27 28 29 30 31 32 33 34 35 36 37 38 39 40 41 42 43 44 45 46 47 48 49 50

197
ASUS45 KSLC 261410
RWRUT

UTAH REGIONAL WEATHER ROUNDUP
NATIONAL WEATHER SERVICE SALT LAKE CITY UT
800 AM MDT SUN MAR 26 2017

UTZ001>011-023>025-261500-

NORTHERN UTAH

CITY           SKY/WX    TMP DP  RH WIND       PRES   REMARKS
BRIGHAM CITY     N/A     33  32  95 CALM      30.06R VSB 1/4
HILL AFB       PTCLDY    34  30  85 E12       30.04R WCI  26
LOGAN          CLEAR     31  27  85 CALM      30.05R
OGDEN          CLEAR     33  31  92 S7        30.04R WCI  27
SALT LAKE CITY PTCLDY    34  33  96 SE7       30.04R WCI  28
WENDOVER       CLEAR     32  27  81 CALM      30.04R
HEBER CITY     MOCLDY    28  27  93 CALM      30.03R

$$

UTZ011>015-024>027-261500-

CENTRAL/NORTHEAST UTAH

CITY           SKY/WX    TMP DP  RH WIND       PRES   REMARKS
PROVO AIRPORT  CLOUDY    38  36  92 SE3       30.07R
MOAB/CANYONLAN CLOUDY    39  33  79 NE6       29.94R WCI  35
DELTA          CLOUDY    32  32 100 N6        30.06R WCI  26
PRICE          CLEAR     37  24  59 NW13      29.97R WCI  29
RICHFIELD      CLEAR     28  28 100 CALM      30.09R
ROOSEVELT      CLOUDY    39  30  70 W6        29.99R WCI  35
VERNAL         MOCLDY    40  32  73 CALM      29.98R

$$

UTZ013>016-019>022-027-261500-

SOUTHERN UTAH

CITY           SKY/WX    TMP DP  RH WIND       PRES   REMARKS
BRYCE CANYON   CLEAR     27  22  81 NW10      30.03R WCI  17
CEDAR CITY     CLEAR     28  26  92 CALM      30.05R FOG
MILFORD        PTCLDY    29  27  92 S5        30.07R WCI  24
ST GEORGE      MOSUNNY   40  34  79 CALM      30.05R
HANKSVILLE     CLEAR     32  28  86 CALM      29.99R
KANAB          CLEAR     32  30  93 N5        30.08R WCI  27
BLANDING       CLEAR     35  34  97 CALM      30.02R

$$

REGIONAL REPORTS     COLORADO/ARIZONA

CITY           SKY/WX    TMP DP  RH WIND       PRES   REMARKS
CRAIG, CO      CLOUDY    37  29  72 W12       29.99R WCI  29
GRAND JUNCTION CLOUDY    46  38  73 N7        29.93R
RIFLE, CO      CLOUDY    43  39  86 CALM      29.94R
MONTROSE, CO   CLOUDY    40  37  89 SE7       29.96R
CORTEZ, CO     MOCLDY    39  37  92 CALM      29.96R
COLORADO CITY    N/A     30  28  93 E5        30.07R WCI  25
PAGE, AZ       CLEAR     46  33  60 CALM      29.98R
GRAND CANYON   PTCLDY    24  23  96 CALM      30.04R
KINGMAN, AZ    PTCLDY    41  33  73 E7        30.01R
FLAGSTAFF, AZ  CLEAR     32  23  69 CALM      30.02R

$$

REGIONAL REPORTS    NEVADA/IDAHO/WYOMING

CITY           SKY/WX    TMP DP  RH WIND       PRES   REMARKS
LAS VEGAS, NV  PTCLDY    53  37  54 S3        29.99R
ELY, NY        CLEAR     23  19  85 S12       30.05R WCI  12
ELKO, NV       CLEAR     30  26  85 E5        30.01R WCI  25
POCATELLO, ID  CLEAR     28  25  88 SW5       30.03R WCI  23
BURLEY, ID     CLEAR     34  27  75 SW12      30.00R WCI  25
FORT BRIDGER,    N/A     30  27  90 W8        30.04R WCI  22
EVANSTON, WY   MOCLDY    26  23  88 SW6       30.01S FOG     WCI  19
ROCK SPRINGS,  CLEAR     31  26  82 W6        30.00R WCI  25

$$




USA.gov is the U.S. government's official web portal to all federal, state and local government web resources and services.